AirNav   Pilot Hours Calculator
 
 1097 users online  

2XA4 Flying S Ranch Airport
Collinsville, Texas, USA

GOING TO COLLINSVILLE?


FAA INFORMATION EFFECTIVE 22 APRIL 2021

Location

FAA Identifier: 2XA4
Lat/Long: 33-34-51.0000N 096-48-01.0000W
33-34.850000N 096-48.016667W
33.5808333,-96.8002778
(estimated)
Elevation: 730 ft. / 223 m (estimated)
From city: 9 miles NE of COLLINSVILLE, TX
Time zone: UTC -5 (UTC -6 during Standard Time)
Zip code: 76233

Airport Operations

Airport use: Private use. Permission required prior to landing
Activation date: 09/2006
Control tower: no
ARTCC: FORT WORTH CENTER
FSS: FORT WORTH FLIGHT SERVICE STATION
Attendance: UNATNDD
Segmented circle: no

Airport Communications

WX AWOS-3 at GYI (10 nm NE): 118.775 (903-786-7790)

Nearby radio navigation aids

VOR radial/distance  VOR name  Freq  Var
BYPr269/28.4BONHAM VORTAC114.6006E

 
NDB name  Hdg/Dist  Freq  Var  ID
DENISON198/16.134106EDNI -.. -. ..

Airport Services

Runway Information

Runway 18/36

Dimensions: 2500 x 40 ft. / 762 x 12 m
Surface: turf
RUNWAY 18  RUNWAY 36
Traffic pattern: leftleft
Obstructions: 4 ft. fence, 20 ft. from runway30 ft. pline, 100 ft. from runway

Airport Ownership and Management from official FAA records

Ownership: Privately-owned
Owner: DARYL G. SMITH
700 NETTLETON DRIVE
SOUTHLAKE, TX 76092
Phone 817-251-8694
Manager: DARYL G. SMITH
700 NETTLETON DRIVE
SOUTHLAKE, TX 76092
Phone 817-251-8694

Airport Operational Statistics

Aircraft based on the field: 1
Single engine airplanes: 1
    

Additional Remarks

2000 FT TOWER 3.12 NM SW.
FOR CD CTC FORT WORTH ARTCC AT 817-858-7584.

Instrument Procedures

There are no published instrument procedures at 2XA4.

Some nearby airports with instrument procedures:

KGYI - North Texas Regional Airport/Perrin Field (10 nm NE)
KSWI - Sherman Municipal Airport (11 nm E)
KGLE - Gainesville Municipal Airport (20 nm W)
KTKI - McKinney NTL Airport (26 nm SE)
KDUA - Durant Regional Airport - Eaker Field (30 nm NE)
 
Loc | Ops | Rwys | IFR | FBO | Links
Com | Nav | Svcs | Stats | Notes

City of Fort Worth
 
Area around 2XA4 (Flying S Ranch Airport)
 
Road maps at: MapQuest Bing Google
 
Aerial photo
No photo
 
Sectional chart

 
Airport distance calculator
Flying to Flying S Ranch Airport? Find the distance to fly.

From to 2XA4

Sunrise and sunset
Times for 16-May-2021
 Local
(UTC-5)
 Zulu
(UTC)
Morning civil twilight05:5910:59
Sunrise06:2711:27
Sunset20:2001:20
Evening civil twilight20:4801:48

Current date and time
Zulu (UTC)  17-May-2021 00:02:33
Local (UTC-5)  16-May-2021 19:02:33
 
METAR
KGYI 
10nm NE 
162350Z 09011G18KT 10SM SCT008 BKN014 OVC020 22/20 A2993
TAF
KDFW 
42nm S 
162102Z 1621/1724 16013KT P6SM VCSH BKN015 TEMPO 1621/1624 P6SM NSW SCT015 BKN250 FM170000 15009KT P6SM BKN015 FM170300 15010KT 6SM BR OVC010 FM170600 16011KT 5SM BR OVC008 FM171100 17011KT 6SM BR VCTS OVC015CB TEMPO 1712/1715 3SM +TSRA FM172100 14012KT P6SM VCTS BKN025CB
KDAL 
44nm S 
162102Z 1621/1718 16012KT P6SM VCSH BKN015 TEMPO 1621/1624 P6SM NSW SCT015 BKN250 FM170000 15009KT P6SM BKN015 FM170300 15010KT 6SM BR OVC010 FM170600 16011KT 5SM BR OVC008 FM171100 17011KT 6SM BR VCTS OVC015CB TEMPO 1712/1715 3SM +TSRA
KAFW 
45nm SW 
162153Z 1622/1718 15012KT P6SM VCSH BKN020 FM170100 15009KT P6SM BKN015 FM170300 15010KT 6SM BR OVC010 FM170600 16011KT 5SM BR OVC008 FM171100 17011KT 6SM BR VCTS OVC015CB TEMPO 1712/1715 3SM +TSRA
NOTAMs
Click for the latest NOTAMs
NOTAMs are issued by the DoD/FAA and will open in a separate window not controlled by AirNav.

 

 
 

Would you like to see your business listed on this page?

 If your business provides an interesting product or service to pilots, flight crews, aircraft, or users of the Flying S Ranch Airport, you should consider listing it here.  To start the listing process, click on the button below
 
Add a business
 

Other Pages about Flying S Ranch Airport

Update a link
 
Copyright © AirNav, LLC. All rights reserved. Privacy Policy  Contact